sat.trackr.live / text

‹ back to catalog

STARLINK-4627

NORAD 53711 · 2022-107M

PAYLOAD ACTIVE UNKNOWN

§ Identity

Operator
Country
US
Launch date
2022-09-05
Launch site
AFETR
Launch vehicle
Mass (kg)
RCS (m²)

Purposes: comms

External: N2YO · Heavens-Above · Gunter

§ Orbital elements

Epoch: 2026-09-20T21:42:19.849824Z

Period
93.85 min
Inclination
53.1619°
Eccentricity
0.0000807
Mean motion
15.34394620 rev/d
Perigee alt
462.2 km
Apogee alt
463.3 km
Semi-major
6,840.9 km
B*
-4.7678e-5
RAAN
76.0356°
Arg perigee
111.2811°
Mean anomaly
248.8278°
Rev number
22,417

§ Raw data

STARLINK-46271 53711U 22107M   26263.90439641 -.00001986  00000+0 -47678-4 0  99952 53711  53.1619  76.0356 0000807 111.2811 248.8278 15.34394620224173

JSON: /api/v1/satellites/53711 · /tle

For live sub-satellite position, see the globe view (requires WebGL).

§ Visibility from observer

Set your observer location to see the next 7 days of passes ≥ 10°. The values pass through the URL so the page stays shareable.

No JS? Fill the form by hand. The geolocation button needs JavaScript.